Time,TemperatureF,DewpointF,PressureIn,WindDirection,WindDirectionDegrees,WindSpeedMPH,WindSpeedGustMPH,Humidity,HourlyPrecipIn,Conditions,Clouds,dailyrainin,SoftwareType,DateUTC
2013-02-18 00:00:00,37.4,34.7,30.06,ENE,67,2.0,16.0,90,0.00,,,0.02,Wunderground v.1.15,2013-02-18 08:00:00,
2013-02-18 00:05:00,37.4,34.7,30.06,ENE,67,2.0,16.0,90,0.00,,,0.00,Wunderground v.1.15,2013-02-18 08:05:00,
2013-02-18 00:11:00,37.3,34.6,30.06,ENE,67,3.0,3.0,90,0.00,,,0.00,Wunderground v.1.15,2013-02-18 08:11:00,
2013-02-18 00:16:00,37.2,34.5,30.06,ENE,67,3.0,3.0,90,0.00,,,0.00,Wunderground v.1.15,2013-02-18 08:16:00,
2013-02-18 00:22:00,37.0,34.3,30.06,ENE,67,2.0,2.0,90,0.00,,,0.00,Wunderground v.1.15,2013-02-18 08:22:00,
2013-02-18 00:28:00,36.8,34.1,30.06,ENE,67,2.0,3.0,90,0.00,,,0.00,Wunderground v.1.15,2013-02-18 08:28:00,
2013-02-18 00:34:00,36.6,33.9,30.06,ENE,67,2.0,2.0,90,0.00,,,0.00,Wunderground v.1.15,2013-02-18 08:34:00,
2013-02-18 00:39:00,36.4,34.0,30.06,ENE,67,2.0,3.0,91,0.00,,,0.00,Wunderground v.1.15,2013-02-18 08:39:00,
2013-02-18 00:45:00,36.3,33.9,30.06,ENE,67,2.0,2.0,91,0.00,,,0.00,Wunderground v.1.15,2013-02-18 08:45:00,
2013-02-18 00:50:00,36.2,33.8,30.06,ENE,67,2.0,2.0,91,0.00,,,0.00,Wunderground v.1.15,2013-02-18 08:50:00,
2013-02-18 00:55:00,36.2,33.8,30.06,ENE,67,2.0,3.0,91,0.00,,,0.00,Wunderground v.1.15,2013-02-18 08:55:00,
2013-02-18 01:01:00,36.3,34.2,30.06,ENE,67,3.0,5.0,92,0.00,,,0.00,Wunderground v.1.15,2013-02-18 09:01:00,
2013-02-18 01:06:00,36.5,34.4,30.06,ENE,67,2.0,5.0,92,0.00,,,0.00,Wunderground v.1.15,2013-02-18 09:06:00,
2013-02-18 01:12:00,36.6,34.5,30.06,ENE,67,1.0,5.0,92,0.00,,,0.00,Wunderground v.1.15,2013-02-18 09:12:00,
2013-02-18 01:18:00,36.7,34.6,30.06,ENE,67,1.0,5.0,92,0.00,,,0.00,Wunderground v.1.15,2013-02-18 09:18:00,
2013-02-18 01:23:00,36.8,34.7,30.06,ENE,67,2.0,5.0,92,0.00,,,0.00,Wunderground v.1.15,2013-02-18 09:23:00,
2013-02-18 01:28:00,36.7,34.6,30.06,ENE,67,2.0,5.0,92,0.00,,,0.00,Wunderground v.1.15,2013-02-18 09:28:00,
2013-02-18 01:33:00,36.6,34.5,30.06,ENE,67,2.0,5.0,92,0.00,,,0.00,Wunderground v.1.15,2013-02-18 09:33:00,
2013-02-18 01:39:00,36.5,34.4,30.06,ENE,67,2.0,5.0,92,0.00,,,0.00,Wunderground v.1.15,2013-02-18 09:39:00,
2013-02-18 01:44:00,36.4,34.3,30.06,ENE,67,2.0,5.0,92,0.00,,,0.00,Wunderground v.1.15,2013-02-18 09:44:00,
2013-02-18 01:50:00,36.3,34.2,30.06,ENE,67,2.0,5.0,92,0.00,,,0.00,Wunderground v.1.15,2013-02-18 09:50:00,
2013-02-18 01:56:00,36.2,34.4,30.06,ENE,67,2.0,5.0,93,0.00,,,0.00,Wunderground v.1.15,2013-02-18 09:56:00,
2013-02-18 02:01:00,36.1,34.3,30.06,ENE,67,2.0,5.0,93,0.00,,,0.00,Wunderground v.1.15,2013-02-18 10:01:00,
2013-02-18 02:06:00,36.0,34.2,30.06,ENE,67,2.0,5.0,93,0.00,,,0.00,Wunderground v.1.15,2013-02-18 10:06:00,
2013-02-18 02:12:00,35.9,34.1,30.06,ENE,67,1.0,5.0,93,0.00,,,0.00,Wunderground v.1.15,2013-02-18 10:12:00,
2013-02-18 02:17:00,35.9,34.1,30.06,ENE,67,1.0,5.0,93,0.00,,,0.00,Wunderground v.1.15,2013-02-18 10:17:00,
2013-02-18 02:23:00,35.9,34.1,30.06,ENE,67,0.0,5.0,93,0.00,,,0.00,Wunderground v.1.15,2013-02-18 10:23:00,
2013-02-18 02:29:00,35.9,34.1,30.06,ENE,67,0.0,5.0,93,0.00,,,0.00,Wunderground v.1.15,2013-02-18 10:29:00,
2013-02-18 02:34:00,35.9,34.1,30.06,ENE,67,1.0,5.0,93,0.00,,,0.00,Wunderground v.1.15,2013-02-18 10:34:00,
2013-02-18 02:40:00,35.8,34.0,30.05,ENE,67,1.0,1.0,93,0.00,,,0.00,Wunderground v.1.15,2013-02-18 10:40:00,
2013-02-18 02:45:00,35.7,33.9,30.05,ENE,67,1.0,5.0,93,0.00,,,0.00,Wunderground v.1.15,2013-02-18 10:45:00,
2013-02-18 02:51:00,35.6,33.8,30.05,ENE,67,0.0,5.0,93,0.00,,,0.00,Wunderground v.1.15,2013-02-18 10:51:00,
2013-02-18 02:56:00,35.5,33.7,30.04,ENE,67,0.0,5.0,93,0.00,,,0.00,Wunderground v.1.15,2013-02-18 10:56:00,
2013-02-18 03:02:00,35.4,33.6,30.04,ENE,67,0.0,5.0,93,0.00,,,0.00,Wunderground v.1.15,2013-02-18 11:02:00,
2013-02-18 03:07:00,35.4,33.6,30.03,ENE,67,0.0,5.0,93,0.00,,,0.00,Wunderground v.1.15,2013-02-18 11:07:00,
2013-02-18 03:13:00,35.4,33.6,30.03,ENE,67,1.0,5.0,93,0.00,,,0.00,Wunderground v.1.15,2013-02-18 11:13:00,
2013-02-18 03:18:00,35.3,33.5,30.03,ENE,67,1.0,5.0,93,0.00,,,0.00,Wunderground v.1.15,2013-02-18 11:18:00,
2013-02-18 03:24:00,35.3,33.5,30.03,ENE,67,1.0,5.0,93,0.00,,,0.00,Wunderground v.1.15,2013-02-18 11:24:00,
2013-02-18 03:29:00,35.3,33.5,30.02,ENE,67,1.0,5.0,93,0.00,,,0.00,Wunderground v.1.15,2013-02-18 11:29:00,
2013-02-18 03:35:00,35.3,33.5,30.02,ENE,67,2.0,5.0,93,0.00,,,0.00,Wunderground v.1.15,2013-02-18 11:35:00,
2013-02-18 03:41:00,35.4,33.6,30.02,ENE,67,1.0,5.0,93,0.00,,,0.00,Wunderground v.1.15,2013-02-18 11:41:00,
2013-02-18 03:46:00,35.3,33.5,30.02,ENE,67,1.0,5.0,93,0.00,,,0.00,Wunderground v.1.15,2013-02-18 11:46:00,
2013-02-18 03:52:00,35.2,33.4,30.02,ENE,67,1.0,5.0,93,0.00,,,0.00,Wunderground v.1.15,2013-02-18 11:52:00,
2013-02-18 03:58:00,35.1,33.3,30.02,ENE,67,0.0,5.0,93,0.00,,,0.00,Wunderground v.1.15,2013-02-18 11:58:00,
2013-02-18 04:04:00,35.1,33.3,30.02,ENE,67,0.0,5.0,93,0.00,,,0.00,Wunderground v.1.15,2013-02-18 12:04:00,
2013-02-18 04:09:00,35.1,33.3,30.02,ENE,67,0.0,5.0,93,0.00,,,0.00,Wunderground v.1.15,2013-02-18 12:09:00,
2013-02-18 04:15:00,35.1,33.3,30.02,ENE,67,0.0,5.0,93,0.00,,,0.00,Wunderground v.1.15,2013-02-18 12:15:00,
2013-02-18 04:22:00,35.0,33.2,30.03,ENE,67,0.0,5.0,93,0.00,,,0.00,Wunderground v.1.15,2013-02-18 12:22:00,
2013-02-18 04:27:00,35.0,33.2,30.03,ENE,67,0.0,5.0,93,0.00,,,0.00,Wunderground v.1.15,2013-02-18 12:27:00,
2013-02-18 04:33:00,35.1,33.3,30.02,ENE,67,0.0,5.0,93,0.00,,,0.00,Wunderground v.1.15,2013-02-18 12:33:00,
2013-02-18 04:39:00,35.1,33.3,30.02,ENE,67,0.0,5.0,93,0.00,,,0.00,Wunderground v.1.15,2013-02-18 12:39:00,
2013-02-18 04:44:00,35.2,33.4,30.02,ENE,67,0.0,5.0,93,0.00,,,0.00,Wunderground v.1.15,2013-02-18 12:44:00,
2013-02-18 04:50:00,35.2,33.4,30.02,ENE,67,1.0,1.0,93,0.00,,,0.00,Wunderground v.1.15,2013-02-18 12:50:00,
2013-02-18 04:56:00,35.1,33.3,30.02,ENE,67,0.0,5.0,93,0.00,,,0.00,Wunderground v.1.15,2013-02-18 12:56:00,
2013-02-18 05:02:00,35.0,33.2,30.02,ENE,67,0.0,5.0,93,0.00,,,0.00,Wunderground v.1.15,2013-02-18 13:02:00,
2013-02-18 05:08:00,35.0,33.2,30.03,ENE,67,0.0,5.0,93,0.00,,,0.00,Wunderground v.1.15,2013-02-18 13:08:00,
2013-02-18 05:13:00,34.9,33.1,30.03,ENE,67,0.0,5.0,93,0.00,,,0.00,Wunderground v.1.15,2013-02-18 13:13:00,
2013-02-18 05:18:00,34.9,33.1,30.03,ENE,67,0.0,5.0,93,0.00,,,0.00,Wunderground v.1.15,2013-02-18 13:18:00,
2013-02-18 05:23:00,34.9,33.1,30.03,ENE,67,0.0,5.0,93,0.00,,,0.00,Wunderground v.1.15,2013-02-18 13:23:00,
2013-02-18 05:29:00,35.0,33.2,30.03,ENE,67,0.0,5.0,93,0.00,,,0.00,Wunderground v.1.15,2013-02-18 13:29:00,
2013-02-18 05:34:00,35.0,33.2,30.03,ENE,67,1.0,5.0,93,0.00,,,0.00,Wunderground v.1.15,2013-02-18 13:34:00,
2013-02-18 05:39:00,35.0,33.2,30.03,ENE,67,2.0,5.0,93,0.00,,,0.00,Wunderground v.1.15,2013-02-18 13:39:00,
2013-02-18 05:45:00,35.1,33.5,30.03,ENE,67,2.0,5.0,94,0.00,,,0.00,Wunderground v.1.15,2013-02-18 13:45:00,
2013-02-18 05:50:00,35.3,33.7,30.03,ENE,67,2.0,2.0,94,0.00,,,0.00,Wunderground v.1.15,2013-02-18 13:50:00,
2013-02-18 05:56:00,35.4,33.8,30.03,ENE,67,1.0,5.0,94,0.00,,,0.00,Wunderground v.1.15,2013-02-18 13:56:00,
2013-02-18 06:01:00,35.5,33.9,30.03,ENE,67,0.0,5.0,94,0.00,,,0.00,Wunderground v.1.15,2013-02-18 14:01:00,
2013-02-18 06:06:00,35.6,34.0,30.04,ENE,67,0.0,5.0,94,0.00,,,0.00,Wunderground v.1.15,2013-02-18 14:06:00,
2013-02-18 06:12:00,35.7,34.1,30.04,ENE,67,0.0,5.0,94,0.00,,,0.00,Wunderground v.1.15,2013-02-18 14:12:00,
2013-02-18 06:17:00,35.7,34.1,30.04,ENE,67,0.0,5.0,94,0.00,,,0.00,Wunderground v.1.15,2013-02-18 14:17:00,
2013-02-18 06:22:00,35.7,33.9,30.03,ENE,67,0.0,5.0,93,0.00,,,0.00,Wunderground v.1.15,2013-02-18 14:22:00,
2013-02-18 06:28:00,35.6,33.8,30.04,ENE,67,0.0,5.0,93,0.00,,,0.00,Wunderground v.1.15,2013-02-18 14:28:00,
2013-02-18 06:34:00,35.6,33.8,30.03,ENE,67,1.0,5.0,93,0.00,,,0.00,Wunderground v.1.15,2013-02-18 14:34:00,
2013-02-18 06:39:00,35.6,33.8,30.03,ENE,67,0.0,5.0,93,0.00,,,0.00,Wunderground v.1.15,2013-02-18 14:39:00,
2013-02-18 06:44:00,35.6,34.0,30.03,ENE,67,0.0,5.0,94,0.00,,,0.00,Wunderground v.1.15,2013-02-18 14:44:00,
2013-02-18 06:50:00,35.7,34.1,30.03,ENE,67,1.0,5.0,94,0.00,,,0.00,Wunderground v.1.15,2013-02-18 14:50:00,
2013-02-18 06:56:00,35.7,34.1,30.03,ENE,67,1.0,5.0,94,0.00,,,0.00,Wunderground v.1.15,2013-02-18 14:56:00,
2013-02-18 07:02:00,35.7,33.9,30.03,ENE,67,0.0,5.0,93,0.00,,,0.00,Wunderground v.1.15,2013-02-18 15:02:00,
2013-02-18 07:08:00,35.6,33.8,30.03,ENE,67,0.0,5.0,93,0.00,,,0.00,Wunderground v.1.15,2013-02-18 15:08:00,
2013-02-18 07:14:00,35.7,33.9,30.03,ENE,67,0.0,5.0,93,0.00,,,0.00,Wunderground v.1.15,2013-02-18 15:14:00,
2013-02-18 07:19:00,35.7,34.1,30.03,ENE,67,0.0,5.0,94,0.00,,,0.00,Wunderground v.1.15,2013-02-18 15:19:00,
2013-02-18 07:24:00,35.7,34.1,30.03,ENE,67,0.0,5.0,94,0.00,,,0.00,Wunderground v.1.15,2013-02-18 15:24:00,
2013-02-18 07:29:00,35.8,34.2,30.04,ENE,67,0.0,5.0,94,0.00,,,0.00,Wunderground v.1.15,2013-02-18 15:29:00,
2013-02-18 07:35:00,36.0,34.4,30.04,ENE,67,1.0,5.0,94,0.00,,,0.00,Wunderground v.1.15,2013-02-18 15:35:00,
2013-02-18 07:40:00,36.2,34.6,30.04,ENE,67,2.0,5.0,94,0.00,,,0.00,Wunderground v.1.15,2013-02-18 15:40:00,
2013-02-18 07:45:00,36.4,34.8,30.04,ENE,67,2.0,5.0,94,0.00,,,0.00,Wunderground v.1.15,2013-02-18 15:45:00,
2013-02-18 07:52:00,36.7,35.1,30.04,ENE,67,0.0,5.0,94,0.00,,,0.00,Wunderground v.1.15,2013-02-18 15:52:00,
2013-02-18 07:58:00,36.8,35.2,30.04,ENE,67,0.0,5.0,94,0.00,,,0.00,Wunderground v.1.15,2013-02-18 15:58:00,
2013-02-18 08:04:00,36.9,35.3,30.04,ENE,67,2.0,5.0,94,0.00,,,0.00,Wunderground v.1.15,2013-02-18 16:04:00,
2013-02-18 08:09:00,37.1,35.5,30.04,ENE,67,2.0,5.0,94,0.00,,,0.00,Wunderground v.1.15,2013-02-18 16:09:00,
2013-02-18 08:15:00,37.4,35.8,30.03,ENE,67,2.0,5.0,94,0.00,,,0.00,Wunderground v.1.15,2013-02-18 16:15:00,
2013-02-18 08:20:00,37.7,36.1,30.04,East,98,2.0,5.0,94,0.00,,,0.00,Wunderground v.1.15,2013-02-18 16:20:00,
2013-02-18 08:25:00,37.9,36.3,30.03,ESE,111,3.0,5.0,94,0.00,,,0.00,Wunderground v.1.15,2013-02-18 16:25:00,
2013-02-18 08:31:00,38.0,36.4,30.03,ESE,119,3.0,5.0,94,0.00,,,0.00,Wunderground v.1.15,2013-02-18 16:31:00,
2013-02-18 08:36:00,38.1,36.5,30.03,ESE,120,3.0,5.0,94,0.00,,,0.00,Wunderground v.1.15,2013-02-18 16:36:00,
2013-02-18 08:42:00,38.3,36.5,30.03,ESE,121,3.0,5.0,93,0.00,,,0.00,Wunderground v.1.15,2013-02-18 16:42:00,
2013-02-18 08:48:00,38.4,36.8,30.03,ESE,121,2.0,5.0,94,0.00,,,0.00,Wunderground v.1.15,2013-02-18 16:48:00,
2013-02-18 08:53:00,38.6,37.0,30.03,ESE,121,1.0,5.0,94,0.00,,,0.00,Wunderground v.1.15,2013-02-18 16:53:00,
2013-02-18 08:59:00,38.8,36.9,30.03,ESE,121,2.0,5.0,93,0.00,,,0.00,Wunderground v.1.15,2013-02-18 16:59:00,
2013-02-18 09:04:00,39.0,37.4,30.04,ESE,121,2.0,5.0,94,0.00,,,0.00,Wunderground v.1.15,2013-02-18 17:04:00,
2013-02-18 09:10:00,39.3,37.4,30.04,ESE,121,2.0,5.0,93,0.00,,,0.00,Wunderground v.1.15,2013-02-18 17:10:00,
2013-02-18 09:16:00,39.4,37.5,30.04,ESE,121,1.0,5.0,93,0.00,,,0.00,Wunderground v.1.15,2013-02-18 17:16:00,
2013-02-18 09:21:00,39.5,37.6,30.04,ESE,121,1.0,5.0,93,0.00,,,0.00,Wunderground v.1.15,2013-02-18 17:21:00,
2013-02-18 09:27:00,39.8,37.9,30.04,ESE,121,2.0,5.0,93,0.00,,,0.00,Wunderground v.1.15,2013-02-18 17:27:00,
2013-02-18 09:33:00,40.2,38.3,30.04,ESE,121,2.0,5.0,93,0.00,,,0.00,Wunderground v.1.15,2013-02-18 17:33:00,
2013-02-18 09:39:00,40.5,38.6,30.04,ESE,121,2.0,5.0,93,0.00,,,0.00,Wunderground v.1.15,2013-02-18 17:39:00,
2013-02-18 09:44:00,40.6,38.7,30.03,ESE,121,2.0,5.0,93,0.00,,,0.00,Wunderground v.1.15,2013-02-18 17:44:00,
2013-02-18 09:50:00,40.9,39.0,30.03,ESE,121,2.0,2.0,93,0.00,,,0.00,Wunderground v.1.15,2013-02-18 17:50:00,
2013-02-18 09:55:00,41.1,39.5,30.03,ESE,121,1.0,5.0,94,0.00,,,0.00,Wunderground v.1.15,2013-02-18 17:55:00,
2013-02-18 10:00:00,41.4,39.8,30.03,ESE,121,1.0,1.0,94,0.00,,,0.00,Wunderground v.1.15,2013-02-18 18:00:00,
2013-02-18 10:06:00,41.7,40.1,30.03,ESE,121,1.0,5.0,94,0.00,,,0.00,Wunderground v.1.15,2013-02-18 18:06:00,
2013-02-18 10:12:00,41.8,39.9,30.03,ESE,121,1.0,5.0,93,0.00,,,0.00,Wunderground v.1.15,2013-02-18 18:12:00,
2013-02-18 10:18:00,41.8,39.9,30.03,ESE,121,2.0,5.0,93,0.00,,,0.00,Wunderground v.1.15,2013-02-18 18:18:00,
2013-02-18 10:23:00,41.9,40.0,30.03,SE,126,3.0,5.0,93,0.00,,,0.00,Wunderground v.1.15,2013-02-18 18:23:00,
2013-02-18 10:28:00,42.1,40.2,30.03,SE,130,3.0,5.0,93,0.00,,,0.00,Wunderground v.1.15,2013-02-18 18:28:00,
2013-02-18 10:34:00,42.3,40.4,30.03,SE,130,3.0,5.0,93,0.00,,,0.00,Wunderground v.1.15,2013-02-18 18:34:00,
2013-02-18 10:39:00,42.6,40.7,30.03,SSE,153,3.0,5.0,93,0.00,,,0.00,Wunderground v.1.15,2013-02-18 18:39:00,
2013-02-18 10:45:00,42.6,40.7,30.02,SSE,153,3.0,5.0,93,0.00,,,0.00,Wunderground v.1.15,2013-02-18 18:45:00,
2013-02-18 10:50:00,42.6,40.4,30.02,SSE,157,3.0,5.0,92,0.00,,,0.00,Wunderground v.1.15,2013-02-18 18:50:00,
2013-02-18 10:56:00,42.7,40.5,30.02,South,169,4.0,6.0,92,0.00,,,0.00,Wunderground v.1.15,2013-02-18 18:56:00,
2013-02-18 11:02:00,42.7,40.5,30.02,SSW,202,5.0,7.0,92,0.00,,,0.00,Wunderground v.1.15,2013-02-18 19:02:00,
2013-02-18 11:08:00,42.5,40.3,30.02,SSW,197,6.0,9.0,92,0.00,,,0.00,Wunderground v.1.15,2013-02-18 19:08:00,
2013-02-18 11:13:00,42.0,39.8,30.02,South,186,7.0,8.0,92,0.00,,,0.00,Wunderground v.1.15,2013-02-18 19:13:00,
2013-02-18 11:19:00,41.8,39.6,30.01,South,191,7.0,9.0,92,0.00,,,0.00,Wunderground v.1.15,2013-02-18 19:19:00,
2013-02-18 11:24:00,41.9,39.7,30.02,SSW,193,7.0,9.0,92,0.00,,,0.00,Wunderground v.1.15,2013-02-18 19:24:00,
2013-02-18 11:30:00,42.2,40.0,30.01,South,184,6.0,9.0,92,0.00,,,0.00,Wunderground v.1.15,2013-02-18 19:30:00,
2013-02-18 11:36:00,42.3,40.4,30.02,South,188,5.0,9.0,93,0.00,,,0.00,Wunderground v.1.15,2013-02-18 19:36:00,
2013-02-18 11:42:00,42.3,40.4,30.01,South,188,5.0,6.0,93,0.00,,,0.00,Wunderground v.1.15,2013-02-18 19:42:00,
2013-02-18 11:47:00,42.5,40.3,30.01,South,188,4.0,6.0,92,0.00,,,0.00,Wunderground v.1.15,2013-02-18 19:47:00,
2013-02-18 11:52:00,42.7,40.5,30.01,South,188,4.0,5.0,92,0.00,,,0.00,Wunderground v.1.15,2013-02-18 19:52:00,
2013-02-18 11:57:00,42.8,40.6,30.01,South,189,5.0,5.0,92,0.00,,,0.00,Wunderground v.1.15,2013-02-18 19:57:00,
2013-02-18 12:03:00,42.7,40.5,30.00,SSW,207,6.0,7.0,92,0.00,,,0.00,Wunderground v.1.15,2013-02-18 20:03:00,
2013-02-18 12:08:00,42.7,40.3,30.01,SSW,212,6.0,7.0,91,0.00,,,0.00,Wunderground v.1.15,2013-02-18 20:08:00,
2013-02-18 12:14:00,43.0,40.6,30.01,SW,221,6.0,9.0,91,0.00,,,0.00,Wunderground v.1.15,2013-02-18 20:14:00,
2013-02-18 12:19:00,43.0,40.6,30.00,SW,217,7.0,9.0,91,0.00,,,0.00,Wunderground v.1.15,2013-02-18 20:19:00,
2013-02-18 12:25:00,42.8,39.8,30.00,SSW,204,7.0,9.0,89,0.00,,,0.00,Wunderground v.1.15,2013-02-18 20:25:00,
2013-02-18 12:31:00,42.8,40.1,30.00,SW,224,6.0,9.0,90,0.00,,,0.00,Wunderground v.1.15,2013-02-18 20:31:00,
2013-02-18 12:37:00,42.8,39.8,29.99,SSW,196,5.0,9.0,89,0.00,,,0.00,Wunderground v.1.15,2013-02-18 20:37:00,
2013-02-18 12:43:00,43.1,40.4,29.99,SSW,196,4.0,5.0,90,0.00,,,0.00,Wunderground v.1.15,2013-02-18 20:43:00,
2013-02-18 12:48:00,43.5,40.8,29.99,SSW,197,4.0,6.0,90,0.00,,,0.00,Wunderground v.1.15,2013-02-18 20:48:00,
2013-02-18 12:54:00,43.8,40.8,29.99,SSW,192,5.0,7.0,89,0.00,,,0.00,Wunderground v.1.15,2013-02-18 20:54:00,
2013-02-18 12:59:00,44.1,40.8,29.98,SSW,206,6.0,8.0,88,0.00,,,0.00,Wunderground v.1.15,2013-02-18 20:59:00,
2013-02-18 13:05:00,44.5,41.2,29.98,SSW,203,6.0,8.0,88,0.00,,,0.00,Wunderground v.1.15,2013-02-18 21:05:00,
2013-02-18 13:11:00,44.5,40.9,29.98,SSW,203,6.0,8.0,87,0.00,,,0.00,Wunderground v.1.15,2013-02-18 21:11:00,
2013-02-18 13:16:00,44.5,40.9,29.98,SSW,192,6.0,9.0,87,0.00,,,0.00,Wunderground v.1.15,2013-02-18 21:16:00,
2013-02-18 13:22:00,44.7,40.8,29.98,SSW,196,6.0,7.0,86,0.00,,,0.00,Wunderground v.1.15,2013-02-18 21:22:00,
2013-02-18 13:28:00,44.9,41.0,29.98,SSW,205,6.0,8.0,86,0.00,,,0.00,Wunderground v.1.15,2013-02-18 21:28:00,
2013-02-18 13:33:00,44.8,40.9,29.98,SSW,196,7.0,11.0,86,0.00,,,0.00,Wunderground v.1.15,2013-02-18 21:33:00,
2013-02-18 13:39:00,44.9,40.7,29.98,SSW,195,6.0,11.0,85,0.00,,,0.00,Wunderground v.1.15,2013-02-18 21:39:00,
2013-02-18 13:46:00,45.0,40.1,29.98,SSW,201,6.0,9.0,83,0.00,,,0.00,Wunderground v.1.15,2013-02-18 21:46:00,
2013-02-18 13:51:00,45.0,40.1,29.97,SSW,209,7.0,12.0,83,0.00,,,0.00,Wunderground v.1.15,2013-02-18 21:51:00,
2013-02-18 13:57:00,45.0,40.1,29.97,South,186,7.0,12.0,83,0.00,,,0.00,Wunderground v.1.15,2013-02-18 21:57:00,
2013-02-18 14:03:00,45.1,39.9,29.97,South,180,7.0,9.0,82,0.00,,,0.00,Wunderground v.1.15,2013-02-18 22:03:00,
2013-02-18 14:08:00,45.3,40.4,29.97,SSW,208,7.0,11.0,83,0.00,,,0.00,Wunderground v.1.15,2013-02-18 22:08:00,
2013-02-18 14:13:00,45.4,40.5,29.97,SSW,201,7.0,13.0,83,0.00,,,0.00,Wunderground v.1.15,2013-02-18 22:13:00,
2013-02-18 14:18:00,45.1,40.6,29.97,SSW,202,8.0,13.0,84,0.00,,,0.00,Wunderground v.1.15,2013-02-18 22:18:00,
2013-02-18 14:24:00,44.7,40.2,29.96,SSW,205,8.0,11.0,84,0.00,,,0.00,Wunderground v.1.15,2013-02-18 22:24:00,
2013-02-18 14:30:00,44.8,40.6,29.97,SSW,192,9.0,9.0,85,0.00,,,0.00,Wunderground v.1.15,2013-02-18 22:30:00,
2013-02-18 14:36:00,45.0,40.5,29.96,South,188,8.0,9.0,84,0.00,,,0.00,Wunderground v.1.15,2013-02-18 22:36:00,
2013-02-18 14:41:00,45.2,40.7,29.96,SSW,200,7.0,7.0,84,0.00,,,0.00,Wunderground v.1.15,2013-02-18 22:41:00,
2013-02-18 14:46:00,45.2,40.0,29.96,SSW,207,7.0,9.0,82,0.00,,,0.00,Wunderground v.1.15,2013-02-18 22:46:00,
2013-02-18 14:52:00,45.0,39.5,29.95,SSW,200,7.0,9.0,81,0.00,,,0.00,Wunderground v.1.15,2013-02-18 22:52:00,
2013-02-18 14:57:00,44.9,39.7,29.95,SSW,198,7.0,10.0,82,0.00,,,0.00,Wunderground v.1.15,2013-02-18 22:57:00,
2013-02-18 15:03:00,45.3,40.4,29.95,South,190,7.0,7.0,83,0.00,,,0.00,Wunderground v.1.15,2013-02-18 23:03:00,
2013-02-18 15:08:00,45.7,41.1,29.95,SSW,202,7.0,9.0,84,0.00,,,0.00,Wunderground v.1.15,2013-02-18 23:08:00,
2013-02-18 15:14:00,45.4,40.2,29.95,SSW,197,8.0,11.0,82,0.00,,,0.00,Wunderground v.1.15,2013-02-18 23:14:00,
2013-02-18 15:19:00,45.2,40.3,29.94,South,182,8.0,11.0,83,0.00,,,0.00,Wunderground v.1.15,2013-02-18 23:19:00,
2013-02-18 15:25:00,45.2,40.0,29.94,SSW,196,8.0,9.0,82,0.00,,,0.00,Wunderground v.1.15,2013-02-18 23:25:00,
2013-02-18 15:30:00,45.1,39.9,29.94,SSW,195,9.0,9.0,82,0.00,,,0.00,Wunderground v.1.15,2013-02-18 23:30:00,
2013-02-18 15:36:00,45.6,40.7,29.94,SSW,197,9.0,12.0,83,0.00,,,0.00,Wunderground v.1.15,2013-02-18 23:36:00,
2013-02-18 15:41:00,46.0,40.8,29.94,SSW,211,8.0,11.0,82,0.00,,,0.00,Wunderground v.1.15,2013-02-18 23:41:00,
2013-02-18 15:46:00,46.0,40.8,29.93,SW,215,9.0,11.0,82,0.00,,,0.00,Wunderground v.1.15,2013-02-18 23:46:00,
2013-02-18 15:52:00,46.3,41.1,29.93,SSW,211,8.0,9.0,82,0.00,,,0.00,Wunderground v.1.15,2013-02-18 23:52:00,
2013-02-18 15:58:00,46.4,41.2,29.93,SSW,207,8.0,11.0,82,0.00,,,0.00,Wunderground v.1.15,2013-02-18 23:58:00,
2013-02-18 16:04:00,46.0,40.8,29.92,South,179,8.0,11.0,82,0.00,,,0.00,Wunderground v.1.15,2013-02-19 00:04:00,
2013-02-18 16:10:00,46.2,41.0,29.92,SSW,196,8.0,13.0,82,0.00,,,0.00,Wunderground v.1.15,2013-02-19 00:10:00,
2013-02-18 16:15:00,46.2,41.0,29.92,SSW,196,8.0,13.0,82,0.00,,,0.00,Wunderground v.1.15,2013-02-19 00:15:00,
2013-02-18 16:21:00,46.1,40.9,29.91,SSW,210,8.0,13.0,82,0.00,,,0.00,Wunderground v.1.15,2013-02-19 00:21:00,
2013-02-18 16:27:00,45.6,40.4,29.91,SSW,196,9.0,13.0,82,0.00,,,0.00,Wunderground v.1.15,2013-02-19 00:27:00,
2013-02-18 16:32:00,45.4,40.5,29.91,SSW,202,10.0,11.0,83,0.00,,,0.00,Wunderground v.1.15,2013-02-19 00:32:00,
2013-02-18 16:38:00,45.1,40.6,29.90,SSW,194,9.0,12.0,84,0.00,,,0.00,Wunderground v.1.15,2013-02-19 00:38:00,
2013-02-18 16:44:00,44.7,40.2,29.90,SSW,202,8.0,12.0,84,0.00,,,0.00,Wunderground v.1.15,2013-02-19 00:44:00,
2013-02-18 16:49:00,44.7,40.2,29.90,South,188,9.0,13.0,84,0.00,,,0.00,Wunderground v.1.15,2013-02-19 00:49:00,
2013-02-18 16:55:00,44.7,39.9,29.90,SSW,196,9.0,13.0,83,0.00,,,0.00,Wunderground v.1.15,2013-02-19 00:55:00,
2013-02-18 17:00:00,44.7,40.2,29.89,SSW,201,9.0,13.0,84,0.00,,,0.00,Wunderground v.1.15,2013-02-19 01:00:00,
2013-02-18 17:06:00,44.5,39.7,29.89,SSW,211,10.0,13.0,83,0.00,,,0.00,Wunderground v.1.15,2013-02-19 01:06:00,
2013-02-18 17:12:00,44.3,39.8,29.89,SSW,202,11.0,14.0,84,0.00,,,0.00,Wunderground v.1.15,2013-02-19 01:12:00,
2013-02-18 17:17:00,44.2,39.7,29.89,SSW,203,10.0,14.0,84,0.00,,,0.00,Wunderground v.1.15,2013-02-19 01:17:00,
2013-02-18 17:23:00,44.1,39.6,29.88,SSW,207,10.0,10.0,84,0.00,,,0.00,Wunderground v.1.15,2013-02-19 01:23:00,
2013-02-18 17:28:00,44.1,39.9,29.88,SSW,192,10.0,15.0,85,0.00,,,0.00,Wunderground v.1.15,2013-02-19 01:28:00,
2013-02-18 17:35:00,44.0,39.8,29.88,South,191,11.0,14.0,85,0.00,,,0.00,Wunderground v.1.15,2013-02-19 01:35:00,
2013-02-18 17:41:00,43.7,39.5,29.88,South,185,11.0,15.0,85,0.00,,,0.00,Wunderground v.1.15,2013-02-19 01:41:00,
2013-02-18 17:46:00,43.7,39.5,29.87,South,182,10.0,15.0,85,0.00,,,0.00,Wunderground v.1.15,2013-02-19 01:46:00,
2013-02-18 17:52:00,43.6,39.4,29.87,SSW,198,10.0,13.0,85,0.00,,,0.00,Wunderground v.1.15,2013-02-19 01:52:00,
2013-02-18 17:57:00,43.6,39.4,29.87,South,184,10.0,17.0,85,0.00,,,0.00,Wunderground v.1.15,2013-02-19 01:57:00,
2013-02-18 18:02:00,43.6,39.7,29.87,South,191,10.0,11.0,86,0.00,,,0.00,Wunderground v.1.15,2013-02-19 02:02:00,
2013-02-18 18:08:00,43.5,39.6,29.86,SSW,202,10.0,13.0,86,0.00,,,0.00,Wunderground v.1.15,2013-02-19 02:08:00,
2013-02-18 18:13:00,43.5,39.6,29.87,South,189,10.0,15.0,86,0.00,,,0.00,Wunderground v.1.15,2013-02-19 02:13:00,
2013-02-18 18:18:00,43.4,39.5,29.86,SSW,201,10.0,15.0,86,0.00,,,0.00,Wunderground v.1.15,2013-02-19 02:18:00,
2013-02-18 18:24:00,43.2,39.3,29.86,South,185,9.0,17.0,86,0.00,,,0.00,Wunderground v.1.15,2013-02-19 02:24:00,
2013-02-18 18:31:00,43.2,39.3,29.86,South,188,11.0,11.0,86,0.00,,,0.00,Wunderground v.1.15,2013-02-19 02:31:00,
2013-02-18 18:36:00,43.2,39.3,29.86,South,187,10.0,11.0,86,0.00,,,0.00,Wunderground v.1.15,2013-02-19 02:36:00,
2013-02-18 18:42:00,43.1,39.2,29.85,SSW,196,9.0,9.0,86,0.00,,,0.00,Wunderground v.1.15,2013-02-19 02:42:00,
2013-02-18 18:47:00,43.1,39.2,29.86,SSW,193,8.0,12.0,86,0.00,,,0.00,Wunderground v.1.15,2013-02-19 02:47:00,
2013-02-18 18:52:00,43.0,39.4,29.86,SSW,209,9.0,11.0,87,0.00,,,0.00,Wunderground v.1.15,2013-02-19 02:52:00,
2013-02-18 18:58:00,43.1,39.8,29.86,SSW,201,10.0,14.0,88,0.00,,,0.00,Wunderground v.1.15,2013-02-19 02:58:00,
2013-02-18 19:03:00,42.9,39.6,29.86,SSW,196,10.0,13.0,88,0.00,,,0.00,Wunderground v.1.15,2013-02-19 03:03:00,
2013-02-18 19:09:00,42.7,39.4,29.86,SSW,213,11.0,18.0,88,0.00,,,0.00,Wunderground v.1.15,2013-02-19 03:09:00,
2013-02-18 19:14:00,42.7,39.4,29.85,SSW,194,12.0,17.0,88,0.00,,,0.00,Wunderground v.1.15,2013-02-19 03:14:00,
2013-02-18 19:20:00,42.5,39.2,29.85,South,189,12.0,16.0,88,0.00,,,0.00,Wunderground v.1.15,2013-02-19 03:20:00,
2013-02-18 19:26:00,42.3,39.0,29.85,SSW,194,12.0,16.0,88,0.00,,,0.00,Wunderground v.1.15,2013-02-19 03:26:00,
2013-02-18 19:32:00,42.1,38.8,29.85,SSW,192,12.0,14.0,88,0.00,,,0.00,Wunderground v.1.15,2013-02-19 03:32:00,
2013-02-18 19:38:00,42.0,38.7,29.84,SSW,206,12.0,14.0,88,0.00,,,0.00,Wunderground v.1.15,2013-02-19 03:38:00,
2013-02-18 19:44:00,42.0,39.0,29.84,SSW,197,13.0,19.0,89,0.00,,,0.00,Wunderground v.1.15,2013-02-19 03:44:00,
2013-02-18 19:49:00,42.0,39.3,29.84,SSW,198,12.0,19.0,90,0.00,,,0.00,Wunderground v.1.15,2013-02-19 03:49:00,
2013-02-18 19:54:00,42.0,39.3,29.84,South,183,11.0,13.0,90,0.00,,,0.00,Wunderground v.1.15,2013-02-19 03:54:00,
2013-02-18 19:59:00,41.9,39.5,29.83,SSW,192,10.0,15.0,91,0.00,,,0.00,Wunderground v.1.15,2013-02-19 03:59:00,
2013-02-18 20:05:00,41.9,39.5,29.83,South,191,10.0,17.0,91,0.00,,,0.01,Wunderground v.1.15,2013-02-19 04:05:00,
2013-02-18 20:11:00,41.7,39.3,29.83,SSW,193,11.0,11.0,91,0.00,,,0.01,Wunderground v.1.15,2013-02-19 04:11:00,
2013-02-18 20:16:00,41.5,39.1,29.82,South,173,11.0,13.0,91,0.00,,,0.01,Wunderground v.1.15,2013-02-19 04:16:00,
2013-02-18 20:22:00,41.3,38.9,29.82,SSW,195,10.0,11.0,91,0.00,,,0.01,Wunderground v.1.15,2013-02-19 04:22:00,
2013-02-18 20:28:00,41.1,38.7,29.82,SSW,195,9.0,12.0,91,0.00,,,0.01,Wunderground v.1.15,2013-02-19 04:28:00,
2013-02-18 20:33:00,41.0,38.6,29.82,South,180,9.0,12.0,91,0.00,,,0.01,Wunderground v.1.15,2013-02-19 04:33:00,
2013-02-18 20:38:00,40.8,38.4,29.82,SSE,167,9.0,12.0,91,0.00,,,0.01,Wunderground v.1.15,2013-02-19 04:38:00,
2013-02-18 20:44:00,40.8,38.7,29.81,SSE,159,9.0,12.0,92,0.00,,,0.01,Wunderground v.1.15,2013-02-19 04:44:00,
2013-02-18 20:50:00,40.7,38.6,29.81,South,178,8.0,8.0,92,0.00,,,0.02,Wunderground v.1.15,2013-02-19 04:50:00,
2013-02-18 20:55:00,40.6,38.5,29.81,South,186,7.0,12.0,92,0.00,,,0.02,Wunderground v.1.15,2013-02-19 04:55:00,
2013-02-18 21:00:00,40.5,38.6,29.81,SSE,165,8.0,8.0,93,0.00,,,0.02,Wunderground v.1.15,2013-02-19 05:00:00,
2013-02-18 21:01:00,40.5,38.6,29.81,SW,220,8.0,11.0,93,0.00,,,0.02,Wunderground v.1.15,2013-02-19 05:01:00,
2013-02-18 21:02:00,40.5,38.6,29.81,SSE,156,8.0,11.0,93,0.00,,,0.02,Wunderground v.1.15,2013-02-19 05:02:00,
2013-02-18 21:03:00,40.5,38.6,29.81,South,172,8.0,11.0,93,0.00,,,0.03,Wunderground v.1.15,2013-02-19 05:03:00,
2013-02-18 21:09:00,40.5,38.6,29.81,South,173,7.0,11.0,93,0.00,,,0.03,Wunderground v.1.15,2013-02-19 05:09:00,
2013-02-18 21:15:00,40.4,38.5,29.81,SSW,203,7.0,9.0,93,0.00,,,0.03,Wunderground v.1.15,2013-02-19 05:15:00,
2013-02-18 21:20:00,40.5,38.6,29.81,South,180,7.0,9.0,93,0.00,,,0.03,Wunderground v.1.15,2013-02-19 05:20:00,
2013-02-18 21:26:00,40.5,38.6,29.81,South,190,8.0,11.0,93,0.00,,,0.03,Wunderground v.1.15,2013-02-19 05:26:00,
2013-02-18 21:32:00,40.4,38.8,29.80,South,173,8.0,8.0,94,0.00,,,0.04,Wunderground v.1.15,2013-02-19 05:32:00,
2013-02-18 21:38:00,40.2,38.6,29.80,SSE,165,8.0,12.0,94,0.00,,,0.04,Wunderground v.1.15,2013-02-19 05:38:00,
2013-02-18 21:43:00,40.0,38.4,29.80,SSE,163,9.0,14.0,94,0.04,,,0.05,Wunderground v.1.15,2013-02-19 05:43:00,
2013-02-18 21:49:00,39.8,38.2,29.80,South,171,9.0,18.0,94,0.04,,,0.05,Wunderground v.1.15,2013-02-19 05:49:00,
2013-02-18 21:55:00,39.5,37.9,29.79,South,191,10.0,17.0,94,0.04,,,0.05,Wunderground v.1.15,2013-02-19 05:55:00,
2013-02-18 22:01:00,39.4,37.5,29.79,SSE,154,11.0,12.0,93,0.00,,,0.05,Wunderground v.1.15,2013-02-19 06:01:00,
2013-02-18 22:06:00,39.3,37.4,29.79,South,170,9.0,14.0,93,0.00,,,0.05,Wunderground v.1.15,2013-02-19 06:06:00,
2013-02-18 22:12:00,39.2,37.3,29.78,South,172,9.0,9.0,93,0.00,,,0.05,Wunderground v.1.15,2013-02-19 06:12:00,
2013-02-18 22:18:00,39.1,37.2,29.78,SE,146,8.0,13.0,93,0.00,,,0.05,Wunderground v.1.15,2013-02-19 06:18:00,
2013-02-18 22:24:00,39.0,37.1,29.78,SSE,163,8.0,12.0,93,0.00,,,0.05,Wunderground v.1.15,2013-02-19 06:24:00,
2013-02-18 22:30:00,39.1,37.5,29.77,SSE,148,8.0,8.0,94,0.00,,,0.05,Wunderground v.1.15,2013-02-19 06:30:00,
2013-02-18 22:36:00,39.2,37.3,29.77,ESE,123,7.0,10.0,93,0.00,,,0.05,Wunderground v.1.15,2013-02-19 06:36:00,
2013-02-18 22:41:00,39.3,37.7,29.77,South,173,6.0,9.0,94,0.00,,,0.05,Wunderground v.1.15,2013-02-19 06:41:00,
2013-02-18 22:46:00,39.5,37.9,29.77,South,178,5.0,9.0,94,0.00,,,0.05,Wunderground v.1.15,2013-02-19 06:46:00,
2013-02-18 22:52:00,39.5,37.9,29.76,SSE,166,6.0,6.0,94,0.00,,,0.05,Wunderground v.1.15,2013-02-19 06:52:00,
2013-02-18 22:58:00,39.5,37.9,29.76,South,171,6.0,8.0,94,0.00,,,0.05,Wunderground v.1.15,2013-02-19 06:58:00,
2013-02-18 23:03:00,39.5,37.9,29.76,South,172,6.0,8.0,94,0.00,,,0.05,Wunderground v.1.15,2013-02-19 07:03:00,
2013-02-18 23:09:00,39.7,38.1,29.75,SSE,164,6.0,8.0,94,0.00,,,0.05,Wunderground v.1.15,2013-02-19 07:09:00,
2013-02-18 23:14:00,39.8,38.2,29.75,SSW,192,6.0,9.0,94,0.00,,,0.05,Wunderground v.1.15,2013-02-19 07:14:00,
2013-02-18 23:20:00,40.0,38.4,29.75,South,188,7.0,7.0,94,0.00,,,0.05,Wunderground v.1.15,2013-02-19 07:20:00,
2013-02-18 23:25:00,40.2,38.6,29.74,SSE,165,7.0,10.0,94,0.00,,,0.06,Wunderground v.1.15,2013-02-19 07:25:00,
2013-02-18 23:31:00,40.2,38.6,29.74,SSE,167,6.0,7.0,94,0.00,,,0.06,Wunderground v.1.15,2013-02-19 07:31:00,
2013-02-18 23:36:00,40.2,38.6,29.74,SSE,167,6.0,9.0,94,0.00,,,0.06,Wunderground v.1.15,2013-02-19 07:36:00,
2013-02-18 23:41:00,40.1,38.5,29.73,SSE,164,7.0,7.0,94,0.00,,,0.06,Wunderground v.1.15,2013-02-19 07:41:00,
2013-02-18 23:47:00,40.1,38.5,29.72,South,180,7.0,8.0,94,0.00,,,0.06,Wunderground v.1.15,2013-02-19 07:47:00,
2013-02-18 23:53:00,40.1,38.5,29.72,South,174,7.0,9.0,94,0.00,,,0.06,Wunderground v.1.15,2013-02-19 07:53:00,
2013-02-18 23:58:00,40.0,38.4,29.72,SSE,165,7.0,11.0,94,0.00,,,0.06,Wunderground v.1.15,2013-02-19 07:58:00,